This is the latest recevied weather packets stored in our database for station/object OK1VOF-13. If no packets are shown the sender has not sent any weather packets the latest 10 day(s).
| Time | Temp. | Humidity | Pressure | Rain* | Wind** | Luminosity | Snow |
|---|---|---|---|---|---|---|---|
| 1777791879 | 15.56° C | 41% | 1020.7 hPa | 0 mm | - | - | - |
| 1777791580 | 15.56° C | 41% | 1020.7 hPa | 0 mm | - | - | - |
| 1777791281 | 15.56° C | 41% | 1020.7 hPa | 0 mm | - | - | - |
| 1777790983 | 15° C | 42% | 1020.7 hPa | 0 mm | - | - | - |
| 1777790684 | 15° C | 42% | 1020.6 hPa | 0 mm | - | - | - |
| 1777790385 | 14.44° C | 43% | 1020.5 hPa | 0 mm | - | - | - |
| 1777790086 | 14.44° C | 43% | 1020.4 hPa | 0 mm | - | - | - |
| 1777789787 | 14.44° C | 43% | 1020.5 hPa | 0 mm | - | - | - |
| 1777789500 | 13.89° C | 44% | 1020.4 hPa | 0 mm | - | - | - |
| 1777789489 | 13.89° C | 44% | 1020.4 hPa | 0 mm | - | - | - |
| 1777789190 | 13.33° C | 49% | 1020.4 hPa | 0 mm | - | - | - |
| 1777788905 | 12.78° C | 51% | 1020.3 hPa | 0 mm | - | - | - |
| 1777788896 | 12.78° C | 51% | 1020.3 hPa | 0 mm | - | - | - |
| 1777788891 | 12.78° C | 51% | 1020.3 hPa | 0 mm | - | - | - |
| 1777788592 | 11.67° C | 52% | 1020.3 hPa | 0 mm | - | - | - |
| 1777788293 | 11.67° C | 54% | 1020.3 hPa | 0 mm | - | - | - |
| 1777787995 | 11.67° C | 53% | 1020.2 hPa | 0 mm | - | - | - |
| 1777787696 | 11.11° C | 56% | 1020.2 hPa | 0 mm | - | - | - |
| 1777787397 | 10.56° C | 53% | 1020.2 hPa | 0 mm | - | - | - |
| 1777787098 | 10.56° C | 53% | 1020.2 hPa | 0 mm | - | - | - |
| 1777786799 | 11.11° C | 52% | 1020.1 hPa | 0 mm | - | - | - |
| 1777786501 | 10.56° C | 53% | 1020 hPa | 0 mm | - | - | - |
| 1777786202 | 10° C | 54% | 1020 hPa | 0 mm | - | - | - |
| 1777785903 | 9.44° C | 55% | 1020 hPa | 0 mm | - | - | - |
| 1777785604 | 9.44° C | 56% | 1020 hPa | 0 mm | - | - | - |
* Rain latest hour (hover to see other rain measurements)
** Current wind speed in m/s (hover to see current wind gust speed)